Kezdőlap
METAR-TAF:

METAR-TAF

Repülőterek :

Beatrice Municipal Airport

Beatrice, Nebraska, Amerikai Egyesült Államok

földrajzi szélesség: 40-18N, földrajzi hosszúság: 096-45W, magasság: 403 m

Jelenlegi meteorológiai megfigyelések

A jelentés 27 perccel ezelõtt készült, 11:35 UTC
Kelet-északkeleti szél 7 kt
Hőmérséklet -2°C
Páratartalom 80%
Légköri nyomás 1023 hPa
Látótávolság: 16.1 km
Borult 2000 lábon

METAR: KBIE 081135Z AUTO 06007KT 10SM OVC020 M02/M05 A3020 RMK AO2 T10251050

Idő: 06:02 (12:02 UTC)


TAF: hiányzik

Meteorológiai megfigyelések és előrejelzések több, mint 4000 repülőtéren (METAR és TAF jelentéseket).

A térképen piros és sárga pontok jelzik az elérhető meteorológiai állomásokat.

Mozgassa az egeret a pont fölött, hogy megjelenjen az állomás neve.

Azután kattintson az időjárási megfigyelések és előrejelzések megtekintéséhez.

A térkép megváltoztatása: kattintson a fekete keresztel jelölt zöld gombra ráközelítéshez, a vonallal jelölt zöld gombra távolításhoz, vagy a zöld nyilakra a szomszédos térképek eléréséhez.


METAR-TAF: